COMS 1

Last updated on July 6, 2021, 3:22 p.m. UTC

1 36744U 10032A   21186.81610248 -.00000335  00000-0  00000-0 0  9990
2 36744   0.2558  95.2326 0000659  20.4541 230.2867  1.00271836 32965
UTC
Height (km)
Latitude
Longitude
Inclination
Orbital Period
UTC large
Height (km)
Speed (km/s)
/
Latitude / Longitude
Inclination (degrees)
Orbital Period (minutes)
Azimuth
Elevation
Range (km)
Doppler Factor
iOS Compass Heading
iOS Angle

Next 30 passes for location: Hong Kong

Rise time Rise Azimuth (degrees) Set time Set Azimuth (degrees) Duration Max altitude (degrees)

No matching passes for this satellites